Forside
METAR-TAF:

METAR-TAF

Lufthavne :

Mason Jewett Field

Mason, Michigan, USA

Breddekreds: 42-33-57N, længdekreds: 084-25-24W, højde: 280 m

Aktuelle vejr

Denne rapport blev lavet for 32 minutter siden, kl. 17:55 UTC
Vind 5 kt fra syd
Temperatur 7°C
Fugtighed 42%
Tryk 1013 hPa
Sigt: 16.1 km
skyfri

METAR: KTEW 231755Z AUTO 17005KT 10SM CLR 07/M05 A2992 RMK AO2

Tid: 13:27 (18:27 UTC)


TAF: fraværende

Vejrobservationer og prognoser fra mere end 4000 lufthavne (METAR og TAF).

De gule og røde prikker repræsenterer de meteorologiske stationer.

Flyt musen over at se navnet på stationen.

Så klik over at se vejr observationer og prognoser.

At skifte det kort: Klik på de grønne knapper med et sort kors for at zoome ind; på den grønne knap med en bindestreg for at zoome ud; eller på de grønne pile for tilstødende kort.


METAR-TAF: